�������l�o���
Date,Time,MP-1(��Sv/h),MP-2(��Sv/h),MP-3(��Sv/h),MP-4(��Sv/h),MP-5(��Sv/h),MP-6(��Sv/h),MP-7(��Sv/h),MP-8(��Sv/h),����,����(m/s),���J
2016/06/18,00:00,1.297,-,2.427,2.226,2.172,0.641,1.197,1.038,�k��,1.4,��
2016/06/18,00:10,1.297,-,2.425,2.227,2.169,0.640,1.198,1.038,-,CALM,��
2016/06/18,00:20,1.297,-,2.422,2.227,2.172,0.640,1.200,1.037,�쐼,1.5,��
2016/06/18,00:30,1.296,-,2.427,2.224,2.168,0.641,1.198,1.039,���쐼,0.9,��
2016/06/18,00:40,1.298,-,2.427,2.224,2.170,0.640,1.200,1.039,�쐼,1.4,��
2016/06/18,00:50,1.293,-,2.425,2.229,2.170,0.641,1.200,1.038,�쐼,2.2,��
2016/06/18,01:00,1.298,-,2.425,2.227,2.169,0.640,1.198,1.039,�쐼,2.0,��
2016/06/18,01:10,1.296,-,2.430,2.228,2.169,0.642,1.199,1.038,��쐼,1.7,��
2016/06/18,01:20,1.296,-,2.427,2.229,2.169,0.643,1.200,1.037,���쐼,2.0,��
2016/06/18,01:30,1.297,-,2.426,2.228,2.169,0.643,1.199,1.035,��,1.7,��
2016/06/18,01:40,1.297,-,2.430,2.230,2.170,0.642,1.200,1.038,���k��,1.9,��
2016/06/18,01:50,1.298,-,2.428,2.226,2.171,0.641,1.199,1.040,��,2.0,��
2016/06/18,02:00,1.297,-,2.429,2.228,2.168,0.640,1.200,1.038,��,2.0,��
2016/06/18,02:10,1.296,-,2.428,2.229,2.166,0.640,1.199,1.037,��,4.1,��
2016/06/18,02:20,1.296,-,2.427,2.228,2.170,0.641,1.198,1.038,���k��,5.1,��
2016/06/18,02:30,1.295,-,2.427,2.228,2.165,0.639,1.199,1.039,��,5.6,��
2016/06/18,02:40,1.297,-,2.428,2.229,2.167,0.641,1.199,1.037,��,4.6,��
2016/06/18,02:50,1.297,-,2.425,2.231,2.165,0.641,1.197,1.038,���쐼,4.2,��
2016/06/18,03:00,1.295,-,2.426,2.228,2.167,0.639,1.198,1.040,��,3.8,��
2016/06/18,03:10,1.295,-,2.423,2.227,2.168,0.641,1.199,1.038,��,2.6,��
2016/06/18,03:20,1.295,-,2.426,2.226,2.167,0.641,1.198,1.038,��,2.9,��
2016/06/18,03:30,1.298,-,2.424,2.228,2.168,0.640,1.200,1.036,��,2.8,��
2016/06/18,03:40,1.297,-,2.424,2.230,2.167,0.641,1.197,1.037,��,2.9,��
2016/06/18,03:50,1.296,-,2.427,2.225,2.171,0.641,1.198,1.039,��,3.5,��
2016/06/18,04:00,1.296,-,2.426,2.224,2.166,0.641,1.199,1.037,���k��,2.6,��
2016/06/18,04:10,1.295,-,2.424,2.226,2.167,0.640,1.196,1.038,���k��,1.4,��
2016/06/18,04:20,1.295,-,2.423,2.226,2.168,0.639,1.196,1.037,���k��,2.6,��
2016/06/18,04:30,1.295,-,2.423,2.227,2.166,0.641,1.199,1.037,��,2.3,��
2016/06/18,04:40,1.296,-,2.424,2.225,2.166,0.640,1.198,1.037,��,2.2,��
2016/06/18,04:50,1.296,-,2.420,2.225,2.166,0.639,1.197,1.036,���쐼,1.7,��
2016/06/18,05:00,1.296,-,2.422,2.227,2.169,0.640,1.199,1.036,��,1.5,��
2016/06/18,05:10,1.294,-,2.425,2.226,2.164,0.640,1.197,1.038,��,2.2,��
2016/06/18,05:20,1.295,-,2.424,2.226,2.168,0.640,1.200,1.036,�쐼,1.9,��
2016/06/18,05:30,1.294,-,2.423,2.228,2.168,0.638,1.198,1.037,��,2.2,��
2016/06/18,05:40,1.295,-,2.423,2.225,2.168,0.639,1.199,1.037,���쐼,1.5,��
2016/06/18,05:50,1.297,-,2.426,2.230,2.165,0.640,1.196,1.038,���쐼,2.3,��
2016/06/18,06:00,1.297,-,2.421,2.227,2.171,0.638,1.200,1.039,��,3.1,��
2016/06/18,06:10,1.298,-,2.423,2.226,2.170,0.641,1.199,1.037,��,2.3,��
2016/06/18,06:20,1.297,-,2.424,2.230,2.167,0.641,1.200,1.038,��,2.2,��
2016/06/18,06:30,1.297,-,2.427,2.228,2.168,0.639,1.201,1.037,���k��,1.7,��
2016/06/18,06:40,1.297,-,2.428,2.226,2.173,0.639,1.200,1.039,-,CALM,��
2016/06/18,06:50,1.296,-,2.427,2.230,2.173,0.640,1.200,1.038,-,CALM,��
2016/06/18,07:00,1.298,-,2.428,2.233,2.174,0.637,1.200,1.041,�k�k��,0.8,��
2016/06/18,07:10,1.300,-,2.431,2.233,2.176,0.639,1.199,1.041,���k��,1.1,��
2016/06/18,07:20,1.300,-,2.434,2.232,2.175,0.639,1.199,1.040,�쐼,0.9,��
2016/06/18,07:30,1.301,-,2.435,2.233,2.177,0.637,1.197,1.039,��,1.1,��
2016/06/18,07:40,1.300,-,2.432,2.234,2.177,0.638,1.197,1.038,��쐼,1.7,��
2016/06/18,07:50,1.299,-,2.432,2.233,2.177,0.639,1.198,1.039,��쓌,2.3,��
2016/06/18,08:00,1.297,-,2.430,2.234,2.176,0.639,1.197,1.036,��,1.4,��
2016/06/18,08:10,1.298,-,2.437,2.238,2.177,0.638,1.199,1.036,��쓌,2.2,��
2016/06/18,08:20,1.298,-,2.435,2.235,2.177,0.639,1.198,1.035,��쓌,3.4,��
2016/06/18,08:30,1.298,-,2.437,2.237,2.177,0.640,1.199,1.037,��,2.3,��
2016/06/18,08:40,1.299,-,2.435,2.239,2.176,0.639,1.198,1.038,�쓌,2.2,��
2016/06/18,08:50,1.301,-,2.439,2.237,2.178,0.640,1.199,1.037,�쓌,1.7,��
2016/06/18,09:00,1.299,-,2.439,2.236,2.158,0.639,1.200,1.037,��쓌,1.5,��
2016/06/18,09:10,1.298,-,2.439,2.240,2.157,0.638,1.200,1.037,���쐼,1.7,��
2016/06/18,09:20,1.301,-,2.439,2.240,2.142,0.641,1.200,1.039,��,2.0,��
2016/06/18,09:30,1.299,-,2.438,2.241,2.139,0.639,1.199,1.038,�쓌,4.0,��
2016/06/18,09:40,1.297,-,2.442,2.240,2.161,0.640,1.201,1.038,���쓌,2.6,��
2016/06/18,09:50,1.298,-,2.445,2.243,2.183,0.639,1.202,1.038,���쓌,3.3,��
2016/06/18,10:00,1.296,-,2.443,2.239,2.191,0.641,1.202,1.040,���k��,1.5,��
2016/06/18,10:10,1.299,-,2.447,2.245,2.197,0.641,1.201,1.038,���쓌,3.4,��
2016/06/18,10:20,1.297,-,2.450,2.246,2.197,0.641,1.201,1.037,���쓌,2.2,��
2016/06/18,10:30,1.298,-,2.451,2.245,2.201,0.641,1.202,1.040,��,1.9,��
2016/06/18,10:40,1.302,-,2.454,2.248,2.196,0.641,1.202,1.041,���k��,2.0,��
2016/06/18,10:50,1.302,-,2.454,2.245,2.164,0.640,1.205,1.038,�쓌,2.2,��
2016/06/18,11:00,1.302,-,2.457,2.246,2.130,0.642,1.204,1.038,���쓌,2.8,��
2016/06/18,11:10,1.298,-,2.455,2.246,2.123,0.640,1.203,1.040,��,3.9,��
2016/06/18,11:20,1.300,-,2.457,2.245,2.125,0.643,1.202,1.040,��,4.6,��
2016/06/18,11:30,1.300,-,2.460,2.241,2.119,0.641,1.204,1.040,���쓌,4.1,��
2016/06/18,11:40,1.302,-,2.462,2.246,2.103,0.641,1.203,1.040,�쓌,5.4,��
2016/06/18,11:50,1.302,-,2.459,2.245,2.099,0.643,1.202,1.040,���쓌,4.9,��
2016/06/18,12:00,1.303,-,2.460,2.247,2.113,0.642,1.203,1.040,�쓌,5.5,��
2016/06/18,12:10,1.303,-,2.465,2.248,2.125,0.643,1.202,1.042,�쓌,5.6,��
2016/06/18,12:20,1.305,-,2.462,2.246,2.125,0.643,1.204,1.040,�쓌,4.0,��
2016/06/18,12:30,1.307,-,2.463,2.249,2.129,0.642,1.205,1.040,�쓌,4.6,��
2016/06/18,12:40,1.303,-,2.466,2.250,2.127,0.644,1.204,1.041,�쓌,3.4,��
2016/06/18,12:50,1.305,-,2.466,2.252,2.131,0.642,1.202,1.043,�쓌,5.2,��
2016/06/18,13:00,1.304,-,2.467,2.251,2.133,0.643,1.204,1.039,�쓌,4.8,��
2016/06/18,13:10,1.305,-,2.466,2.251,2.136,0.643,1.206,1.041,�쓌,3.7,��
2016/06/18,13:20,1.307,-,2.471,2.250,2.134,0.644,1.206,1.042,�쓌,4.5,��
2016/06/18,13:30,1.306,-,2.470,2.256,2.132,0.644,1.203,1.041,�쓌,3.4,��
2016/06/18,13:40,1.306,-,2.470,2.255,2.111,0.642,1.203,1.041,�쓌,3.1,��
2016/06/18,13:50,1.305,-,2.470,2.253,2.083,0.643,1.204,1.041,���쓌,3.8,��
2016/06/18,14:00,1.309,-,2.476,2.256,2.067,0.643,1.203,1.042,���쓌,3.3,��
2016/06/18,14:10,1.307,-,2.471,2.256,2.065,0.642,1.205,1.041,���쓌,3.3,��
2016/06/18,14:20,1.307,-,2.472,2.257,2.066,0.644,1.204,1.040,���쓌,3.3,��
2016/06/18,14:30,1.306,-,2.476,2.258,2.057,0.644,1.206,1.040,���쓌,2.3,��
2016/06/18,14:40,1.307,-,2.476,2.259,2.080,0.644,1.206,1.041,�쓌,3.4,��
2016/06/18,14:50,1.307,-,2.475,2.261,2.087,0.644,1.205,1.043,�쓌,2.6,��
2016/06/18,15:00,1.306,-,2.479,2.259,2.084,0.644,1.207,1.043,��쓌,3.0,��
2016/06/18,15:10,1.308,-,2.474,2.258,2.087,0.643,1.206,1.043,�쓌,3.6,��
2016/06/18,15:20,1.305,-,2.474,2.259,2.085,0.644,1.205,1.041,��쓌,3.4,��
2016/06/18,15:30,1.309,-,2.478,2.258,2.087,0.644,1.204,1.041,�쓌,3.4,��
2016/06/18,15:40,1.308,-,2.475,2.260,2.087,0.647,1.206,1.041,�쓌,3.7,��
2016/06/18,15:50,1.306,-,2.480,2.258,2.084,0.643,1.205,1.040,�쓌,4.5,��
2016/06/18,16:00,1.306,-,2.482,2.259,2.101,0.644,1.204,1.042,�쓌,5.1,��
2016/06/18,16:10,1.308,-,2.479,2.260,2.085,0.645,1.204,1.041,�쓌,4.8,��
2016/06/18,16:20,1.307,-,2.480,2.260,2.082,0.643,1.206,1.040,�쓌,5.4,��
2016/06/18,16:30,1.307,-,2.481,2.262,2.088,0.643,1.206,1.040,�쓌,4.9,��
2016/06/18,16:40,1.308,-,2.477,2.260,2.085,0.643,1.206,1.042,�쓌,5.5,��
2016/06/18,16:50,1.309,-,2.478,2.264,2.086,0.643,1.204,1.040,�쓌,4.9,��
2016/06/18,17:00,1.307,-,2.483,2.262,2.087,0.646,1.206,1.039,�쓌,4.7,��
2016/06/18,17:10,1.307,-,2.480,2.265,2.089,0.644,1.205,1.038,��쓌,4.7,��
2016/06/18,17:20,1.308,-,2.482,2.261,2.084,0.644,1.205,1.041,�쓌,5.0,��
2016/06/18,17:30,1.307,-,2.479,2.260,2.085,0.642,1.206,1.039,�쓌,4.8,��
2016/06/18,17:40,1.305,-,2.479,2.264,2.083,0.644,1.205,1.041,�쓌,4.7,��
2016/06/18,17:50,1.306,-,2.481,2.262,2.089,0.643,1.204,1.038,�쓌,5.2,��
2016/06/18,18:00,1.306,-,2.482,2.260,2.088,0.643,1.204,1.039,�쓌,5.5,��
2016/06/18,18:10,1.307,-,2.486,2.265,2.085,0.644,1.205,1.043,�쓌,4.7,��
2016/06/18,18:20,1.307,-,2.485,2.262,2.084,0.643,1.205,1.043,��쓌,3.6,��
2016/06/18,18:30,1.307,-,2.480,2.264,2.085,0.646,1.206,1.044,�쓌,3.4,��
2016/06/18,18:40,1.306,-,2.478,2.262,2.089,0.646,1.203,1.045,��쓌,2.6,��
2016/06/18,18:50,1.306,-,2.478,2.261,2.088,0.647,1.204,1.044,�쓌,2.6,��
2016/06/18,19:00,1.305,-,2.481,2.259,2.089,0.644,1.202,1.043,�쓌,2.8,��
2016/06/18,19:10,1.306,-,2.480,2.258,2.085,0.646,1.205,1.042,��쓌,2.6,��
2016/06/18,19:20,1.308,-,2.475,2.259,2.087,0.643,1.204,1.044,��쓌,3.1,��
2016/06/18,19:30,1.309,-,2.478,2.258,2.083,0.645,1.206,1.043,��쓌,3.6,��
2016/06/18,19:40,1.308,-,2.479,2.257,2.088,0.645,1.208,1.042,��,4.0,��
2016/06/18,19:50,1.308,-,2.480,2.260,2.087,0.646,1.205,1.044,��,4.2,��
2016/06/18,20:00,1.307,-,2.479,2.259,2.088,0.646,1.206,1.042,��,4.2,��
2016/06/18,20:10,1.309,-,2.478,2.258,2.088,0.645,1.206,1.041,��,4.9,��
2016/06/18,20:20,1.311,-,2.477,2.261,2.087,0.645,1.206,1.042,��쐼,4.7,��
2016/06/18,20:30,1.309,-,2.480,2.262,2.086,0.644,1.206,1.042,��,5.0,��
2016/06/18,20:40,1.305,-,2.476,2.263,2.086,0.644,1.205,1.044,��,5.2,��
2016/06/18,20:50,1.310,-,2.475,2.261,2.088,0.646,1.209,1.043,��,6.4,��
2016/06/18,21:00,1.309,-,2.476,2.264,2.085,0.644,1.208,1.041,��,6.0,��
2016/06/18,21:10,1.311,-,2.475,2.260,2.084,0.644,1.205,1.042,��,5.9,��
2016/06/18,21:20,1.310,-,2.477,2.261,2.086,0.645,1.206,1.042,��,6.4,��
2016/06/18,21:30,1.310,-,2.479,2.259,2.085,0.646,1.206,1.041,��,6.5,��
2016/06/18,21:40,1.310,-,2.477,2.257,2.083,0.645,1.208,1.042,��,6.5,��
2016/06/18,21:50,1.310,-,2.476,2.264,2.083,0.644,1.206,1.043,��,6.6,��
2016/06/18,22:00,1.307,-,2.478,2.258,2.084,0.644,1.205,1.042,��,7.1,��
2016/06/18,22:10,1.309,-,2.479,2.260,2.085,0.644,1.207,1.039,��,6.9,��
2016/06/18,22:20,1.310,-,2.479,2.259,2.085,0.644,1.208,1.041,��,6.1,��
2016/06/18,22:30,1.311,-,2.473,2.260,2.080,0.644,1.208,1.043,��,6.1,��
2016/06/18,22:40,1.308,-,2.475,2.262,2.081,0.645,1.208,1.042,��,5.9,��
2016/06/18,22:50,1.308,-,2.474,2.258,2.083,0.645,1.206,1.043,��,6.8,��
2016/06/18,23:00,1.310,-,2.476,2.261,2.079,0.646,1.206,1.043,��쐼,6.4,��
2016/06/18,23:10,1.308,-,2.473,2.258,2.085,0.643,1.206,1.042,��쐼,6.2,��
2016/06/18,23:20,1.311,-,2.476,2.260,2.083,0.645,1.209,1.041,��,6.1,��
2016/06/18,23:30,1.308,-,2.472,2.260,2.083,0.645,1.207,1.041,��쐼,6.0,��
2016/06/18,23:40,1.309,-,2.473,2.258,2.082,0.644,1.207,1.043,��,5.6,��
2016/06/18,23:50,1.311,-,2.473,2.262,2.080,0.644,1.206,1.043,��,2.9,��
